Location: Halfweg
(53.1000°N, 6.6000°E)
Time: 07:29:28
(UTC+00:00)

Daily predictions for brighter satellites

Satellite Brightness Start Highest point End
(mag) Time Altitude Azimuth Time Altitude Azimuth Time Altitude Azimuth
Cosmos 2360 Rocket 2.7 20:02:22 10° NNW 20:07:55 51° NE 20:13:26 10° SE
Cosmos 1452 Rocket 4.3 20:06:24 10° SW 20:11:32 58° WNW 20:16:45 10° NNE
EP 1 4.2 20:10:17 10° NW 20:12:54 77° NE 20:15:35 10° SE
CZ-4B R/B 3.8 20:08:38 10° S 20:14:12 60° WSW 20:19:44 10° NNW
Cosmos 2233 Rocket 4.0 20:09:57 10° S 20:16:08 84° E 20:22:19 10° NNE
Cosmos 1486 Rocket 4.3 20:13:19 10° NNW 20:18:32 59° ENE 20:23:44 10° SE
Cosmos 1302 Rocket 4.3 20:13:41 10° SSW 20:18:52 76° WNW 20:24:06 10° NNE
Okean-O 2.7 20:16:08 10° SSE 20:20:31 84° WSW 20:24:56 10° NNW
Cosmos 1758 Rocket 3.6 20:16:07 10° N 20:20:33 81° E 20:24:58 10° SSE
Cosmos 2219 Rocket 3.0 20:15:11 10° NNW 20:20:35 43° NE 20:25:59 10° ESE
Cosmos 909 Rocket 4.0 20:15:53 10° SSW 20:22:07 70° SE 20:28:41 10° NE
CZ-2C R/B 3.6 20:21:16 10° ESE 20:23:29 22° ENE 20:25:42 10° NNE
DNEPR-1 R/B 4.4 20:23:07 10° NW 20:28:28 84° SW 20:34:57 10° SE
Nadezhda 4 Rocket 4.5 20:23:45 10° N 20:29:39 46° ENE 20:35:27 10° SE
Meteor 1-25 Rocket 4.3 20:24:15 10° N 20:29:55 69° ENE 20:35:29 10° SSE
USA 245 4.3 20:26:17 10° SSE 20:32:08 76° ENE 20:37:32 10° NNW
IRS-1C Rocket 4.3 20:27:18 10° SE 20:32:28 59° ENE 20:37:39 10° N
Cosmos 1825 Rocket 4.4 20:29:04 10° N 20:33:06 36° ENE 20:36:52 12° SE
Cosmos 1805 3.3 20:30:39 10° N 20:33:48 43° ENE 20:36:34 12° SE
NOSS 3-3 (C) 3.7 20:32:01 10° SW 20:37:21 77° SE 20:43:51 10° NE
Cosmos 220 Rocket 4.3 20:33:45 10° S 20:37:34 41° ESE 20:41:28 10° NE
Cosmos 2322 Rocket 2.3 20:34:50 10° NNW 20:40:32 82° ENE 20:45:49 12° SE
RESURS DK-1 4.4 20:38:17 10° N 20:41:14 19° NE 20:44:11 10° E
Cosmos 1602 Rocket 3.5 20:40:11 10° N 20:44:31 82° E 20:48:44 11° SSE
USA 306 1.5 20:42:44 10° W 20:45:41 68° N 20:47:33 10° E
Cosmos 2082 Rocket 2.9 20:41:32 10° SW 20:47:11 60° NW 20:52:51 10° NNE
NOSS 3-4 (A) 3.9 20:41:29 10° NW 20:48:02 76° SW 20:55:06 13° SE
NOSS 3-4 (C) 3.9 20:42:07 10° NW 20:48:41 77° SW 20:55:45 13° SE
YAOGAN 11 4.2 20:46:52 10° NNE 20:51:19 82° WNW 20:55:46 10° SSW
Cosmos 1707 4.4 20:52:13 10° E 20:52:42 10° E 20:53:11 10° ENE
CZ-4B R/B 2.5 20:49:58 12° SSE 20:53:04 80° WSW 20:56:36 10° NNW
Cosmos 2151 3.4 20:50:42 10° NNW 20:54:45 57° W 20:58:45 10° S
Cosmos 1076 Rocket 4.0 20:53:06 10° N 20:57:12 44° ENE 21:00:20 16° SE
Cosmos 44 3.9 20:52:32 10° NW 20:57:55 61° NE 21:02:45 12° ESE
Cosmos 2098 Rocket 3.2 20:53:29 10° S 20:58:04 56° E 21:02:00 10° NNE
Cosmos 2237 Rocket 4.2 20:53:56 10° NNW 20:58:17 22° NNE 21:02:36 10° E
ATLAS 2AS CENTAUR R/B 4.3 20:52:53 10° WNW 20:59:10 36° NNW 21:05:23 10° NE
CZ-4C R/B 3.6 20:55:54 10° W 21:00:26 40° NNW 21:06:17 10° NE
Ariane Rocket 3.0 20:59:02 12° SSE 21:03:41 84° WSW 21:08:48 10° NNW
Cosmos 2278 4.3 21:02:03 10° NW 21:07:36 52° WSW 21:12:37 13° S
SL-16 R/B 3.2 21:06:17 10° NW 21:11:32 40° WSW 21:16:43 10° S
Meteor 1-5 Rocket 4.4 21:06:39 10° NNW 21:12:26 83° W 21:17:38 14° S
COSMOS 2428 3.7 21:07:06 10° NNW 21:12:28 39° NE 21:17:37 11° ESE
SPOT 3 Rocket 4.0 21:09:24 10° S 21:14:23 57° W 21:19:28 10° NNW
Cosmos 1763 Rocket 3.9 21:10:53 13° S 21:15:22 44° ESE 21:20:21 10° NE
USA 186 4.1 21:14:12 10° SW 21:15:59 16° W 21:17:48 10° NW
USA 290 2.2 21:18:07 17° S 21:20:18 54° ESE 21:23:23 10° NE
Cosmos 1606 Rocket 3.5 21:17:15 14° S 21:20:56 72° E 21:25:14 10° NNE
Cosmos 990 Rocket 4.0 21:17:05 10° NNW 21:22:17 88° ENE 21:26:04 19° SSE
Cosmos 1933 4.2 21:21:10 10° SSW 21:24:50 46° WNW 21:28:32 10° N
Cosmos 1464 Rocket 4.0 21:18:50 10° S 21:24:58 83° E 21:31:13 10° NNE
ISS -3.8 21:22:44 10° W 21:26:03 62° S 21:28:15 19° ESE
Helios 1B rocket 3.4 21:24:22 17° ESE 21:26:20 27° ENE 21:29:22 10° N
Cosmos 1461 3.1 21:23:17 10° WSW 21:26:57 59° NW 21:30:35 10° NE
CZ-4B R/B 4.0 21:23:15 13° S 21:27:25 51° W 21:32:11 10° NNW
BREEZE-M DEB (TANK) 1.6 21:25:56 10° WSW 21:28:12 33° S 21:28:12 33° S
Okean 1 3.0 21:25:54 19° S 21:28:19 71° E 21:31:55 10° NNE
Cosmos 1726 Rocket 3.4 21:25:49 19° S 21:28:36 62° E 21:32:38 10° NNE
COSMOS 2406 3.9 21:25:40 10° SW 21:31:19 57° NW 21:37:01 10° NNE
Okean O Rocket 3.9 21:31:57 10° SW 21:34:56 18° W 21:37:57 10° NW
Cosmos 1536 3.2 21:31:33 10° N 21:35:07 45° ENE 21:36:59 24° SE
GRACE-FO 1 4.4 21:34:58 21° S 21:37:10 83° W 21:40:41 10° N
GRACE-FO 2 4.5 21:35:26 21° S 21:37:38 82° W 21:41:09 10° N
Cosmos-2242 3.3 21:37:47 23° SSE 21:39:58 47° E 21:43:56 10° NNE
Cosmos 1092 Rocket 4.0 21:34:46 10° N 21:40:57 72° ENE 21:45:21 20° SSE
Cosmos 2333 Rocket 3.7 21:37:04 10° NW 21:41:48 28° WSW 21:46:30 10° SSW
KORONAS-FOTON 4.5 21:43:53 26° SE 21:44:53 31° E 21:47:56 10° NNE
Cosmos 2297 Rocket 4.0 21:46:14 12° ESE 21:47:47 13° E 21:50:25 10° ENE
Cosmos 1833 4.1 21:44:26 10° SSW 21:50:04 72° ESE 21:55:41 10° NE
Cosmos 2360 Rocket 3.2 21:46:35 10° NW 21:51:47 37° WSW 21:55:44 16° SSW
CZ-2C R/B 3.9 21:52:45 15° SW 21:54:10 22° W 21:56:25 10° NW
Cosmos 1766 2.7 21:52:16 10° NNW 21:55:30 84° W 21:56:45 34° S
Cosmos 2322 3.8 21:50:45 10° NNW 21:56:29 74° NE 22:00:18 21° SE
Cosmos 1842 3.7 21:56:49 28° ESE 21:57:24 30° E 22:00:13 10° NNE
Cosmos 1975 3.7 21:54:18 10° N 21:57:40 32° ENE 21:59:14 23° ESE
Cosmos 372 Rocket 3.9 21:57:17 10° NNW 22:02:26 87° ENE 22:05:24 26° SSE
Cosmos 2034 Rocket 4.1 21:58:36 14° SSW 22:04:11 79° WNW 22:10:33 10° N
Cosmos 2219 Rocket 2.8 21:59:14 10° NW 22:04:36 46° WSW 22:08:05 21° S
Cosmos 2221 3.6 22:03:18 23° SE 22:04:45 28° E 22:08:23 10° NNE
Cosmos 1271 Rocket 3.2 22:06:21 30° SE 22:07:05 34° E 22:10:11 10° NNE
Cosmos 540 Rocket 3.5 22:07:45 12° SSW 22:12:32 80° WNW 22:17:42 10° NNE
USA 306 3.4 22:10:39 10° WNW 22:11:19 16° WNW 22:11:19 16° WNW
Helios 1A 2.7 22:12:15 10° NNE 22:16:12 83° ESE 22:18:07 29° SSW
Cosmos 1953 Rocket 4.5 22:13:33 10° NNW 22:17:38 40° W 22:20:10 20° SSW
RESURS DK-1 2.2 22:15:07 10° NW 22:19:06 84° WSW 22:20:45 34° SSE
Aureole 1 Rocket 4.2 22:14:46 10° NNW 22:20:25 59° WSW 22:24:34 23° S
Cosmos 2279 Rocket 4.1 22:16:39 24° SSE 22:20:27 62° E 22:26:37 10° NNE
Cosmos 2322 Rocket 4.0 22:19:45 10° NW 22:23:55 21° W 22:27:37 12° SW
Cosmos 1707 2.7 22:23:33 31° SW 22:24:30 46° WNW 22:27:15 10° N
Cosmos 1634 Rocket 4.0 22:22:33 22° S 22:26:48 90° ENE 22:33:04 10° N
Cosmos 1937 Rocket 3.5 22:22:10 10° NNW 22:27:21 80° ENE 22:30:09 28° SSE
TSX-5 3.9 22:26:17 10° NW 22:29:17 42° WSW 22:29:55 37° SSW
SL-16 R/B 4.0 22:26:47 10° NNW 22:31:36 27° NE 22:36:23 10° E
Geosat 3.9 22:27:00 10° NNE 22:32:03 82° ESE 22:35:38 19° SSW
CZ-2C R/B 3.9 22:27:59 10° NNE 22:32:23 55° E 22:34:15 32° SSE
Cosmos 2058 Rocket 3.3 22:30:59 23° SSW 22:33:34 63° WNW 22:37:53 10° N
Cosmos 468 Rocket 4.0 22:30:13 20° SSW 22:33:56 90° ESE 22:39:13 10° NNE
GP-B 4.1 22:30:25 10° NNE 22:34:26 34° E 22:36:11 24° SE
Meteor 2-9 Rocket 4.1 22:33:02 10° NNW 22:38:28 87° W 22:41:25 29° S
Cosmos 44 4.4 22:34:01 10° NW 22:38:52 35° WSW 22:41:01 25° SSW
Lacrosse 4 Rocket 3.2 22:42:44 16° ESE 22:42:44 16° ESE 22:45:06 10° ENE
CZ-2C R/B 3.6 22:39:09 17° ESE 22:42:41 37° ENE 22:47:26 10° N
Cosmos 2237 Rocket 2.4 22:37:43 10° NNW 22:43:24 67° NE 22:47:08 22° SE
Cosmos 2266 Rocket 4.0 22:40:55 10° N 22:46:59 72° ENE 22:50:26 27° SSE
USA 234 4.0 22:41:50 10° ENE 22:47:32 31° SE 22:49:36 26° SSE
Cosmos 1980 3.8 22:41:59 10° NNW 22:47:41 76° ENE 22:51:12 24° SE
SeaSat 1 4.0 22:43:48 10° ESE 22:48:05 31° NE 22:52:23 10° NNW
Cosmos 1470 2.8 22:45:20 10° NNW 22:48:33 50° W 22:49:19 40° SW
CZ-4C R/B 4.3 22:45:09 10° WNW 22:50:05 32° N 22:56:20 10° ENE
ATLAS 2AS CENTAUR R/B 4.1 22:45:20 10° NW 22:51:41 38° NNE 22:57:58 10° E
Intercosmos 24 4.4 22:48:25 10° N 22:52:13 44° ENE 22:53:30 31° ESE
ARIANE 5 R/B 2.7 22:52:40 34° S 22:54:32 71° WSW 22:59:02 10° NNW
ALOS 2 2.6 22:54:46 35° S 22:56:34 81° WSW 23:01:00 10° NNW
COSMOS 2428 3.0 22:51:23 10° NW 22:56:54 52° WSW 22:59:34 29° S
Cosmos 2227 Rocket 3.8 22:55:49 17° SE 22:57:42 20° E 23:01:41 10° NE
Helios 1B rocket 3.3 22:58:18 25° SW 22:59:16 29° W 23:02:23 10° NW
Cosmos 1898 Rocket 4.1 22:57:24 10° NW 23:02:19 45° WSW 23:04:33 28° SSW
ISS -2.0 22:59:39 10° W 23:01:10 20° WSW 23:01:10 20° WSW
BlueWalker 3 4.2 23:05:21 11° E 23:05:21 11° E 23:05:40 10° E
Cosmos 2263 Rocket 4.1 23:03:56 12° ESE 23:05:54 15° E 23:08:52 10° ENE
CZ-2C R/B 3.8 23:01:05 10° NNE 23:06:39 47° E 23:09:26 27° SSE
Meteor 1-11 Rocket 3.7 23:01:39 10° NNW 23:07:21 79° W 23:10:10 30° S
Cosmos 1766 Rocket 3.9 23:04:04 10° N 23:08:19 54° ENE 23:10:08 31° SE
SAR-Lupe-2 3.4 23:10:57 53° SSW 23:11:34 68° WSW 23:14:53 10° NNW
Meteor 1-10 Rocket 4.3 23:11:29 29° S 23:14:43 84° E 23:20:42 10° NNE
Cosmos 1238 Rocket 3.6 23:14:04 33° SE 23:15:23 44° E 23:19:37 10° NNE
PSLV R/B 3.5 23:11:14 10° NNE 23:15:33 80° ESE 23:17:16 37° S
Cosmos 1655 Rocket 4.2 23:14:15 10° N 23:20:28 67° ENE 23:24:14 25° SSE
Cosmos 192 4.5 23:16:38 10° NNW 23:21:36 70° ENE 23:24:20 26° SE
Alouette 2 Rocket 3.6 23:22:29 10° NNW 23:26:14 70° ENE 23:28:18 31° SSE
NOSS 0 Rocket 4.5 23:22:18 10° NW 23:28:05 43° WSW 23:30:48 28° SSW
Meteor 1-27 Rocket 3.8 23:25:49 30° S 23:28:48 74° E 23:34:30 10° NNE
Meteor 2-10 Rocket 4.0 23:23:19 10° N 23:28:48 61° ENE 23:32:13 24° SSE
Cosmos 841 Rocket 3.8 23:27:23 22° SW 23:30:43 65° WNW 23:35:58 10° NNE
Cosmos 2297 Rocket 2.2 23:27:59 30° S 23:30:47 68° ESE 23:36:25 10° NE
Cosmos 1975 4.2 23:29:29 10° NW 23:32:30 24° W 23:33:29 21° WSW
CZ-4C R/B 4.4 23:38:09 10° NE 23:41:04 26° E 23:41:47 24° ESE
Cosmos 2221 3.6 23:39:35 22° WSW 23:41:41 35° WNW 23:45:34 10° N
Cosmos 158 Rocket 4.4 23:39:40 31° SSE 23:41:57 51° ESE 23:47:06 10° NNE
Cosmos 1812 Rocket 4.2 23:39:58 27° SW 23:42:03 47° WNW 23:46:22 10° N
ACS3 Solar Sail 2.7 23:37:15 10° NNE 23:42:43 36° E 23:46:10 20° SE
MetOp-A 4.0 23:42:38 33° SSW 23:44:36 58° WSW 23:49:11 10° NNW
Landsat 5 3.9 23:43:15 10° NNE 23:47:12 45° E 23:48:28 33° SSE
